DL3CK-10 Weather Reports


time (UTC)temp
F
wind
direction
speed
knots
gust
knots
rain 1hr
in
rain 24hr
in
rain mn
in
humidity
%
barometer
mb
20260506001505 57 270 0.0 0.0 0.00 0.00 0.00 73 1005.0
20260505231505 58 270 0.0 0.0 0.00 0.00 0.00 72 1005.6
20260505221505 59 270 0.0 0.0 0.00 0.00 0.00 71 1005.3
20260505211506 59 270 0.0 0.0 0.00 0.00 0.00 70 1005.6
20260505201506 60 270 0.0 0.0 0.00 0.00 0.00 69 1004.8
20260505191506 61 270 0.0 0.0 0.00 0.00 0.00 67 1004.1
20260505181506 63 270 0.0 0.0 0.00 0.00 0.00 65 1003.4
20260505171506 63 270 0.0 0.0 0.00 0.00 0.00 64 1003.4
20260505161506 64 270 0.0 0.0 0.00 0.00 0.00 62 1003.3
20260505151506 67 270 0.0 0.0 0.00 0.00 0.00 59 1003.0
20260505121506 83 112 0.0 0.0 0.00 0.00 0.00 35 1002.8
20260505111506 84 112 0.0 0.0 0.00 0.00 0.00 37 1003.7
20260505101507 80 90 0.0 0.0 0.00 0.00 0.00 45 1004.5
20260505091507 76 90 0.0 0.0 0.00 0.00 0.00 52 1005.1
20260505081507 72 90 0.0 0.0 0.00 0.00 0.00 57 1005.4
20260505071507 64 67 0.0 0.0 0.00 0.00 0.00 68 1005.4
20260505061507 58 67 0.0 0.0 0.00 0.00 0.00 76 1006.1
20260505051507 56 67 0.0 0.0 0.00 0.00 0.00 76 1006.3
20260505041507 56 67 0.0 0.0 0.00 0.00 0.00 76 1006.1
20260505031507 57 67 0.0 0.0 0.00 0.00 0.00 74 1006.3
20260505021507 58 67 0.0 0.0 0.00 0.00 0.00 74 1006.6
20260505011507 60 67 0.0 0.0 0.00 0.00 0.00 72 1006.7